Погода в Чернушке

Погода в Чернушке : погода сейчас, прогноз погоды и архив. Всё, что Вы хотите узнать о погоде в Чернушке!

Хотите узнать прогноз погоды в Чернушке? Тогда Вам сюда: Погода в Чернушке

Поиск расширенной информации на нашем сайте:

Другие новости

Новости СМИ2

Главная страница сайта

Новости сайта

03.07.2017

Напоминаем, что на нашем специализированном сайте Метеоцентр.Азия вы можете получить высокодетализированные автоматические прогнозы погоды по пунктам России, СНГ и мира в авиационном формате (включающие направление и скорость ветра, видимость, явления погоды, количество и форму облачности, нижнюю и верхнюю границу облачности).

Рекомендуем: Мебель для гостиницы мебельные технологии мебель для гостиниц.

Погода в Чернушке - сегодня

Время (UTC), дата Ветер
(°,м/с) 
Видим.   Явления Облачность Т
(°С)
Тd
(°С)
f(%) Тe
(°С)
Pmin
(гПа)
dP
(гПа)
Po
(мм)
O2
(г/м3)
Тmin Tmax R s Состояние
почвы
21 18.07.17 120 (ЮВ) 20000 м    10/0 верхняя 
[Ci fib]
+17.1 +13.3 78 +24  1013.9  -0.6  747  281           
00 19.07.17 160 (Ю) 20000 м    10/5 600 м средняя, верхняя 
[Sc|Ac trans|Ci fib]
+15.6 +13 85 +21  1014  0.1  747  282           
06 19.07.17 260 (З) 20000 м  {ливн. осадки}  10/10 600 м кучево-дожд. 
[Cb cap]
+19.9 +15.8 77 +31  1014.7  0.5  748  278           
09 19.07.17 260 (З) 20000 м    10/5 600 м кучево-дожд., верхняя 
[Cb cap|Ci fib]
+20.9 +14.9 69 +29  1015.2  0.6  749  277           
12 19.07.17 300 (СЗ) 20000 м    9/9 600 м кучево-дожд. 
[Cb cap]
+19.7 +14 70 +27  1015.2  0.1  748  278           
18 19.07.17 250 (З) 20000 м    1/0 верхняя 
[Ci fib]
+14.9 +13.7 93 +23  1015.6  0.6  749  283           
21 19.07.17 330 (СЗ) 20000 м    ясно 
+12.9 +12.3 96 +18  1015.5  -0.2  748  286           
00 20.07.17 310 (СЗ) 2000 м  дымка  ясно 
+10.2 +9.6 96 +12  1015.8  0.1  748  289           
06 20.07.17 110 (В) 20000 м    3/3 600 м 
[Cu med, cong]
+23.2 +14 56 +30  1015.1  -0.2  749  275           
09 20.07.17 310 (СЗ) 20000 м    6/6 600 м 
[Cu med, cong]
+25 +12.9 47 +30  1014.5  -0.5  748  274           
12 20.07.17 360 (С) 20000 м    4/4 600 м 
[Cu med, cong]
+26.7 +12.5 41 +31  1013.4  -1  747  272           
18 20.07.17 270 (З) 20000 м    8/8 600 м 
[Sc]
+18.9 +15.5 81 +30  1014.3  0.5  748  278           
21 20.07.17 300 (СЗ) 20000 м    3/0 верхняя 
[Ci fib]
+15 +13.7 92 +23  1014.8  0.2  748  283           
00 21.07.17 340 (С) 4000 м  дымка  ясно 
+13.1 +12.3 95 +18  1015  0.1  748  285           
06 21.07.17 150 (ЮВ) 20000 м    1/1 600 м 
[Cu med, cong]
+24.7 +14.7 54 +33  1014.5  -0.5  748  273           
09 21.07.17 160 (Ю) 20000 м    10/4 600 м кучево-дожд., верхняя 
[Cb cap|Ci fib]
+25.2 +14.6 52 +33  1013.7  -0.7  748  273           
12 21.07.17 220 (ЮЗ) 20000 м    10/3 600 м кучево-дожд., верхняя 
[Cb cap|Ci fib]
+25.8 +14.4 49 +34  1012.4  -1.2  747  272           
18 21.07.17 тихо ()   20000 м    10/10 600 м кучево-дожд. 
[Cb cap]
+19.1 +17.8 92 +33  1011.6  0.1  746  277           
21 21.07.17 220 (ЮЗ) 2000 м  дымка  3/3 600 м кучево-дожд. 
[Cb cap]
+16.2 +15.4 95 +28  1010.7  -1  745  280           
00 22.07.17 150 (ЮВ) 1000 м  дымка{туман}  10/10 600 м кучево-дожд. 
[Cb cap]
+15.1 +14.4 96 +24  1010.4  -0.4  745  281           
06 22.07.17 190 (Ю) 20000 м  {гроза, ливн. осадки}  9/9 600 м кучево-дожд. 
[Cb cap]
+20.7 +16.1 75 +32  1009.5  744  275           
12 22.07.17 240 (ЮЗ) 20000 м  {гроза, ливн. осадки}  8/8 600 м кучево-дожд. 
[Cb cap]
+22.3 +13.2 56 +28  1008.8  -0.7  744  275           
18 22.07.17 240 (ЮЗ) 20000 м  {гроза}  1/1 600 м 
[Sc]
+14.4 +12.9 91 +20  1011.2  1.3  745  283           
21 22.07.17 240 (ЮЗ) 2000 м  дымка  ясно 
+11.4 +10.6 95 +15  1011.3  0.1  745  286           
00 23.07.17 тихо ()   10 км    ясно 
+10.5 +9.9 96 +12  1011.4  0.1  745  287           
Время (UTC), дата Ветер
(°,м/с) 
Видим.   Явления Облачность Т
(°С)
Тd
(°С)
f(%) Тe
(°С)
Pmin
(гПа)
dP
(гПа)
Po
(мм)
O2
(г/м3)
Тmin Tmax R s Состояние
почвы

Для получения пояснительной информации подведите курсор к названию столбца.

ПОГОДА в Чернушке - архив

Всё, что Вы хотите узнать о погоде в Чернушке - удобно и подробно!

Выберите нужную дату (начиная с 1 января 2015* года) и нажмите кнопку "Найти".
Будут отображены архивные сводки погоды по пункту Чернушка, начиная с указанной даты.


Отображать данные в формате CSV (для использования в таблицах Excel)


Внимание! Наш архив погоды предназначен исключительно для личного некоммерческого использования в познавательных целях. Если Вам необходимы официальные справки о состоянии погоды (для производственных, юридических, коммерческих и т.п. целей), обращайтесь в органы Росгидромета.

*Примечание: данная дата относится к архиву по метеостанциям СССР (Россия, СНГ, Балтия).
Архив по метеостанциям Зарубежной Европы и Азии (кроме Китая) хранится 10 дней, по другим регионам земного шара (Китай, Африка, Америка, Австралия, Океания) - 1 день.

Чернушка - район местоположения метеостанции


Название, широта, долгота, высота метеостанции:
Чернушка 56.5°ш. 56.1°д. 148 м над ур. моря [Российская Федерация]

Дополнительная информация

В oтличие oт бoльшинства пoгoдных сайтoв мы публикуем пoдрoбную метеoинфoрмацию в детальнoм прoфессиoнальнoм фoрмате.

Характеристики температуры и влажнoсти вoздуха измеряются на высoте 2 м в тени вдали oт зданий и деревьев.
Скoрoсть ветра измеряется на высoте 10 м (на урoвне рoста челoвека скoрoсть ветра ниже в 1.5-2 раза). Если метеoстанция нахoдится в гoрoде или в лесу, тo скoрoсть ветра занижена на 2-4 м/с пo сравнению с oткрытым местoм. Скoрoсть ветра над акватoриями крупных рек и oзёр, а также на вершинах хoлмoв на 2-5 м/с выше, чем в oбычных услoвиях.
Атмoсфернoе давление в разных тoчках местнoсти мoжет значительнo oтличаться oт давления на метеoстанции, в зависимoсти oт услoвий рельефа (при пoдъёме на 10 м давление пoнижается примернo на 1 мм рт.ст.).